Weather in Murygino

Russia / Kirov Oblast     58°44′14″N   49°27′41″E
temp.,
°C
wind,
m/s
gust,
m/s
humid.,
%
clouds,
%
prec.,
mm/h
press.,
hPa
HPBL,
m
29 january, sat
sat2900:00−13sse2897100 0.1 1017169
03:00−11sse299790 0.1 1016204
06:00−8sse3996100 0.1 1015323
09:00−8sse3109592 0.3 1015376
12:00−6sse4991100 0.2 1014525
15:00−7sse389392 0.3 1013516
18:00−10se2897100 0.0 1012160
21:00−11se2896100 0.1 1011201
30 january, sun
sun3000:00−11se269687 0.0 1010183
03:00−12se269769 0.0 1009118
06:00−12se279686 0.1 1008184
09:00−11se389579 0.2 1007294
12:00−8se3791100 0.1 1007422
15:00−8se3794100 0.1 1007396
18:00−11ese279773 0.1 1008155
21:00−12se269889 0.1 1008129
31 january, mon
mon3100:00−15ese249989 0.1 100960
03:00−15ese249996 0.1 100976
06:00−15ese259996 0.1 100992
09:00−14ese289898 0.1 1010165
12:00−8se3694100 0.1 1010265
15:00−7ese3895100 0.1 1010326
18:00−8ese4119699 0.1 1010313
21:00−6se51190100 0.1 1009625
1 february, tue
tue100:00−6se51294100 0.4 1007597
03:00−6se41295100 1.4 1006556
06:00−4se51395100 0.8 1004560
09:00−1se51295100 1.2 1003771
12:00−1sse61293100 0.4 1002827
15:00−1sse51195100 0.8 1001852
18:00−1sse51197100 0.4 1001807
21:00−2sse41194100 0.8 1002669
2 february, wed
wed200:00−3s41095100 0.3 1002684
03:00−3s41096100 0.8 1003749
06:00−4ssw41095100 0.6 1005743
09:00−6ssw41093100 0.8 1007665
12:00−6ssw4992100 0.2 1010662
15:00−7s4892100 0.3 1012520
18:00−8sse41094100 0.0 1013380
21:00−9se3995100 0.1 1013287